[[{"header":{"parameterUnit":"m.s-1","parameterCategory":2,"la1":30.2991,"la2":30.254,"lo1":-89.0895,"lo2":-89.0444,"dy":0.0017,"dx":0.0017,"nx":28,"ny":28,"refTime":"2024-08-13T09:00:00:Z","depth":"0","parameterNumber":2,"parameterNumberName":"U-component_of_CURRENTS"},"data":[0,0,0,0,0,0,0,0,0,0,0,0,0,0,0,0,0,0,0,0,0,0,0,0,0,0,0,0,0,0,0,0,0,0,0,0,0,0,0,0,0,0,0,0,0,0,0,0,0,0,0,0,0,0,0,0,0,0,0.4784,0.4784,0,0.4766,0.4765,0.4764,0.4742,0.4743,0.4743,0.4744,0.468,0.4678,0.4676,0,0,0,0,0,0,0,0,0,0,0,0,0,0.476,0.476,0.4784,0.4784,0.4785,0.4766,0.4765,0.4764,0.4742,0.4743,0.4743,0.4744,0.4681,0.4678,0.4676,0,0,0,0,0,0,0,0,0,0,0,0,0,0.475,0.476,0.4784,0.4778,0.4778,0.4766,0.4765,0.4764,0.4742,0.4743,0.4743,0.4744,0.4682,0.4679,0.4675,0.4641,0,0,0.4666,0.4664,0,0,0,0,0,0,0,0,0.4751,0.475,0.4779,0.4779,0.4779,0.4765,0.4734,0.4724,0.4742,0.4746,0.4744,0.4744,0.471,0.4704,0.4687,0.4638,0.4636,0.4665,0.4663,0.4662,0.4661,0,0,0,0,0,0,0,0.4752,0.4751,0.4768,0.4779,0.478,0.4764,0.4763,0.4731,0.4716,0.4746,0.4747,0.4759,0.4708,0.469,0.4685,0.4635,0.4665,0.4663,0.4661,0.4659,0.4642,0.4643,0,0,0,0,0,0,0.4773,0.4751,0.4768,0.4768,0.4777,0.4765,0.4763,0.4761,0.4718,0.4715,0.4758,0.4758,0.4695,0.4689,0.4683,0.4695,0.4662,0.4659,0.4657,0.464,0.4642,0.4644,0,0,0,0,0,0,0.4772,0.4774,0.4769,0.4767,0.4767,0.4766,0.4763,0.4761,0.4756,0.4729,0.4723,0.4759,0.4696,0.4688,0.466,0.4691,0.4658,0.4655,0.4639,0.4641,0.4643,0.4684,0,0,0,0,0,0,0.4771,0.4773,0.477,0.4768,0.4768,0.4775,0.4763,0.476,0.4766,0.4765,0.4727,0.4721,0.4695,0.4665,0.4657,0.4686,0.4652,0.4637,0.464,0.4642,0.4681,0.4687,0.4693,0,0,0,0,0,0.477,0.4763,0.4769,0.4772,0.4766,0.4776,0.4773,0.4769,0.4766,0.4765,0.4735,0.4723,0.4678,0.4662,0.4653,0.4681,0.4635,0.4639,0.4642,0.4678,0.4686,0.4693,0,0,0,0,0,0,0.4747,0.4761,0.4767,0.4764,0.478,0.4776,0.4771,0.4775,0.475,0.4745,0.4715,0.4706,0.4716,0.4684,0.4668,0.469,0.4666,0.4667,0.4697,0.4704,0.471,0.4731,0.465,0,0,0,0,0,0.4744,0.4739,0.4763,0.4759,0.4769,0.4772,0.4773,0.4778,0.4765,0.4755,0.4731,0.4714,0.4719,0.4698,0.4696,0.4671,0.4711,0.4695,0.4701,0.4706,0.472,0.4785,0.4799,0.4654,0.4654,0.4654,0,0,0.4733,0.4742,0.4738,0.4754,0.4758,0.4765,0.4772,0.4781,0.4786,0.475,0.4731,0.4738,0.4725,0.4724,0.4724,0.4695,0.4779,0.471,0.4715,0.4726,0.479,0.4805,0.4817,0.4656,0.4656,0.4656,0,0,0.4717,0.4721,0.4718,0.473,0.4755,0.476,0.4772,0.4779,0.4782,0.477,0.4773,0.4792,0.4754,0.4768,0.4767,0.48,0.4827,0.4807,0.4823,0.4886,0.4899,0.491,0.5022,0.5043,0.4785,0.4785,0.4785,0,0.4708,0.4704,0.472,0.4727,0.4731,0.4763,0.4764,0.4775,0.4772,0.4782,0.4772,0.4793,0.4784,0.4814,0.4834,0.4817,0.4869,0.4791,0.4895,0.4907,0.4918,0.5029,0.5051,0.4787,0.4787,0.4787,0.4787,0,0.4695,0.4693,0.4693,0.4707,0.4716,0.4722,0.4753,0.4767,0.4777,0.4794,0.4837,0.4836,0.4851,0.4866,0.4852,0.4932,0.4955,0.4915,0.4876,0.4935,0.5049,0.5072,0.4791,0.479,0.4789,0.4789,0,0,0.4661,0.4681,0.4678,0.468,0.4704,0.471,0.4733,0.4767,0.4789,0.4816,0.4853,0.4888,0.4915,0.492,0.4929,0.4976,0.5116,0.4974,0.4976,0.5086,0.5303,0.512,0.5128,0.5087,0.509,0.5093,0.5367,0,0.4645,0.4647,0.4659,0.4654,0.4656,0.4689,0.4699,0.4738,0.4776,0.4823,0.4883,0.4926,0.4927,0.4949,0.5002,0.509,0.5171,0.5049,0.5229,0.5236,0.5064,0.5144,0.4821,0.5017,0.5389,0.5393,0.5396,0,0.4617,0.4625,0.4617,0.4625,0.4628,0.4626,0.466,0.4684,0.4772,0.4811,0.4886,0.4942,0.5052,0.503,0.5226,0.5147,0.5242,0.5306,0.5317,0.5142,0.5091,0.501,0.5045,0.4902,0.5431,0.5428,0.5426,0,0.4572,0.4585,0.4574,0.4577,0.4599,0.4598,0.4612,0.4673,0.4703,0.4827,0.4875,0.5002,0.5075,0.5206,0.5331,0.5302,0.5541,0.5512,0.5457,0.5449,0.5205,0.5166,0.5111,0.567,0.567,0.5669,0.5668,0,0.4531,0.452,0.455,0.4541,0.4528,0.4556,0.4557,0.4611,0.4688,0.4731,0.4867,0.4929,0.5118,0.5257,0.5378,0.5477,0.5586,0.5493,0.5497,0.5211,0.5171,0.5057,0.5017,0.5679,0.5677,0.5675,0.5673,0,0.4466,0.4488,0.4481,0.4502,0.4501,0.4492,0.4511,0.4527,0.4617,0.469,0.474,0.4921,0.5091,0.5267,0.5497,0.5507,0.547,0.565,0.532,0.5274,0.5017,0.4991,0.4874,0.4753,0.565,0.5647,0.5644,0,0.4424,0.4419,0.4442,0.4433,0.4432,0.4424,0.4416,0.4486,0.4509,0.4661,0.4694,0.4889,0.4963,0.5225,0.5303,0.548,0.5381,0.5274,0.5127,0.4967,0.4947,0.4834,0.4734,0.4881,0.4872,0.4865,0.486,0,0.4354,0.4371,0.4373,0.4355,0.4341,0.4334,0.4331,0.4342,0.4432,0.448,0.4552,0.4625,0.4821,0.4797,0.4988,0.5063,0.4949,0.5129,0.5041,0.4395,0.4194,0.4087,0.4798,0.4796,0.4803,0.4807,0.4811,0.4813,0.4295,0.4282,0.4286,0.4253,0.4247,0.4225,0.4152,0.4172,0.4175,0.4144,0.432,0.4269,0.4334,0.4518,0.4575,0.4429,0.4554,0.429,0.4312,0.4245,0.3957,0.4533,0.4452,0.4456,0.4459,0.4462,0.4465,0,0.4193,0.4189,0.4173,0.412,0.4057,0.4096,0.4062,0.3945,0.3859,0.3864,0.3831,0.3756,0.3703,0.379,0.3761,0.3637,0.3544,0.3546,0.3322,0.33,0.3875,0.3658,0.3298,0.3298,0.3298,0.3298,0.3299,0.3299,0.4136,0.4082,0.4071,0.3931,0.3885,0.3714,0.3657,0.3518,0.345,0.3223,0.3081,0.3106,0.3263,0.3249,0.3119,0.3059,0.2908,0.2704,0.2855,0.3244,0.3315,0.3383,0.3167,0.271,0.271,0.2079,0.2074,0.2071]},{"header":{"parameterUnit":"m.s-1","parameterCategory":2,"la1":30.2991,"la2":30.254,"lo1":-89.0895,"lo2":-89.0444,"dy":0.0017,"dx":0.0017,"nx":28,"ny":28,"refTime":"2024-08-13T09:00:00:Z","depth":"0","parameterNumber":3,"parameterNumberName":"V-component_of_CURRENTS"},"data":[0,0,0,0,0,0,0,0,0,0,0,0,0,0,0,0,0,0,0,0,0,0,0,0,0,0,0,0,0,0,0,0,0,0,0,0,0,0,0,0,0,0,0,0,0,0,0,0,0,0,0,0,0,0,0,0,0,0,0.0009,0.0009,0,0.0025,0.0025,0.0025,-0.0022,-0.0023,-0.0024,-0.0026,-0.0114,-0.0115,-0.0116,0,0,0,0,0,0,0,0,0,0,0,0,0,-0.0038,-0.0037,0.0009,0.0009,0.001,0.0025,0.0025,0.0025,-0.0022,-0.0023,-0.0025,-0.0026,-0.0113,-0.0115,-0.0116,0,0,0,0,0,0,0,0,0,0,0,0,0,-0.0021,-0.0037,0.0009,-0.001,-0.0012,0.0025,0.0025,0.0025,-0.0021,-0.0023,-0.0025,-0.0027,-0.0113,-0.0115,-0.0116,-0.0089,0,0,-0.0122,-0.0123,0,0,0,0,0,0,0,0,-0.0022,-0.0019,-0.0008,-0.0009,-0.0011,-0.0001,-0.0024,-0.0018,-0.0021,-0.0019,-0.0026,-0.0028,-0.0083,-0.0088,-0.0081,-0.0093,-0.0097,-0.0122,-0.0123,-0.0124,-0.0124,0,0,0,0,0,0,0,-0.0023,-0.002,0.0013,-0.0007,-0.0009,-0.0012,-0.0012,-0.0023,-0.0044,-0.002,-0.0023,-0.0018,-0.0085,-0.0079,-0.0084,-0.0098,-0.0122,-0.0123,-0.0125,-0.0125,-0.0085,-0.0083,0,0,0,0,0,0,-0.002,-0.0021,0.0013,0.0014,-0.0019,-0.0009,-0.001,-0.0004,-0.0042,-0.0048,-0.0016,-0.002,-0.0075,-0.0082,-0.0087,-0.0047,-0.0124,-0.0125,-0.0126,-0.0088,-0.0085,-0.0083,0,0,0,0,0,0,-0.0021,-0.0017,0.0012,-0.0002,0.0001,-0.0007,0.0001,-0.0002,0.0004,-0.0037,-0.0047,-0.0007,-0.0077,-0.0085,-0.0095,-0.0052,-0.0126,-0.0128,-0.009,-0.0087,-0.0084,0.0026,0,0,0,0,0,0,-0.0023,-0.0018,-0.0008,-0.0002,0.0002,0.0043,0.0003,-0.0,0.001,0.0005,-0.0033,-0.0043,-0.0079,-0.0091,-0.0096,-0.0056,-0.0129,-0.0093,-0.0089,-0.0085,0.002,0.0033,0.0044,0,0,0,0,0,-0.0025,-0.0004,-0.0008,-0.0004,0.0014,0.0045,0.0047,0.0033,0.0013,0.0029,-0.0004,-0.0042,-0.007,-0.0091,-0.0097,-0.0056,-0.0095,-0.009,-0.0085,0.0015,0.003,0.0043,0,0,0,0,0,0,-0.0016,-0.0006,-0.0011,0.0012,0.0032,0.0037,0.0052,0.0045,0.0037,0.0027,-0.0022,-0.0033,-0.0023,-0.0052,-0.0074,-0.0031,-0.0084,-0.0081,-0.0006,0.0008,0.002,0.0041,-0.0131,0,0,0,0,0,-0.0008,0.0006,0.0021,0.0042,0.0053,0.0057,0.0068,0.0064,0.0057,0.0052,0.0029,0.0006,-0.0003,-0.0011,-0.0025,-0.0003,-0.0023,0.0023,0.0035,0.0045,0.006,0.0058,0.0071,-0.0067,-0.0067,-0.0067,0,0,0.0003,0.0009,0.0019,0.0044,0.0055,0.0093,0.0058,0.0086,0.0116,0.0044,0.0071,0.0044,0.0011,0.0033,0.0037,0.0011,0.0079,0.0051,0.006,0.007,0.0064,0.0077,0.0089,-0.0064,-0.0065,-0.0065,0,0,0.0036,0.0039,0.0065,0.0087,0.0113,0.0124,0.0137,0.0155,0.0159,0.0185,0.0143,0.0143,0.013,0.0123,0.0113,0.0186,0.014,0.0184,0.0263,0.0261,0.0272,0.0281,0.0292,0.0302,0.0192,0.0192,0.0192,0,0.0049,0.0086,0.008,0.0116,0.0146,0.0143,0.0193,0.0208,0.0221,0.0241,0.0205,0.0214,0.0179,0.0214,0.0236,0.0215,0.0204,0.0208,0.0276,0.0284,0.0292,0.0301,0.031,0.0198,0.0197,0.0197,0.0196,0,0.0107,0.014,0.0161,0.0206,0.0236,0.0281,0.0304,0.0337,0.0341,0.0356,0.039,0.0349,0.0356,0.035,0.0311,0.0362,0.0335,0.0288,0.0238,0.0313,0.0317,0.0325,0.0206,0.0204,0.0203,0.0201,0,0,0.0137,0.0191,0.0204,0.0244,0.029,0.033,0.0386,0.045,0.0501,0.0503,0.0567,0.0548,0.0528,0.0518,0.0475,0.0471,0.0516,0.041,0.0407,0.042,0.0523,0.0491,0.0496,0.0472,0.0474,0.0475,0.0511,0,0.0192,0.0279,0.0289,0.0385,0.044,0.0458,0.0517,0.0568,0.0596,0.0658,0.0636,0.0669,0.0592,0.0599,0.0587,0.0534,0.0537,0.0511,0.045,0.0449,0.041,0.0504,0.0449,0.0475,0.0518,0.0519,0.052,0,0.0262,0.0309,0.041,0.0492,0.0517,0.0571,0.0675,0.0721,0.0789,0.0813,0.0839,0.082,0.0836,0.0747,0.0708,0.0693,0.0627,0.0574,0.0573,0.0509,0.0431,0.0403,0.0486,0.0314,0.053,0.0529,0.0529,0,0.0319,0.0403,0.049,0.052,0.0605,0.0656,0.0701,0.0775,0.0841,0.0912,0.0975,0.0967,0.0991,0.0903,0.0807,0.0758,0.076,0.0672,0.0588,0.0584,0.0511,0.0498,0.0417,0.065,0.065,0.065,0.065,0,0.0396,0.0465,0.0524,0.0579,0.0689,0.0712,0.0833,0.0879,0.0965,0.108,0.1054,0.1145,0.1029,0.1016,0.0882,0.0785,0.0822,0.0632,0.0601,0.055,0.0541,0.0363,0.0284,0.0651,0.0651,0.0651,0.065,0,0.0463,0.05,0.0602,0.069,0.0725,0.0802,0.0919,0.1009,0.1067,0.1218,0.1252,0.1304,0.1291,0.117,0.106,0.0906,0.0698,0.0741,0.0701,0.0663,0.0382,0.0314,0.0225,0.0182,0.0644,0.0643,0.0643,0,0.0514,0.0573,0.0686,0.0754,0.0799,0.0906,0.0996,0.1066,0.1167,0.1329,0.142,0.1462,0.1526,0.136,0.1106,0.0896,0.0732,0.068,0.0561,0.0392,0.0292,0.0229,0.0195,0.0515,0.0514,0.0513,0.0512,0,0.0605,0.0641,0.0721,0.0852,0.0955,0.1073,0.1194,0.1294,0.1405,0.1541,0.1714,0.1772,0.1627,0.141,0.1109,0.0927,0.055,0.0648,0.0479,0.0207,0.0129,0.0063,0.0476,0.0502,0.0503,0.0504,0.0504,0.0505,0.0674,0.074,0.0839,0.0961,0.1081,0.1229,0.134,0.1486,0.1668,0.1856,0.1902,0.1988,0.1642,0.1231,0.0981,0.0454,0.0498,0.0245,0.0187,0.0148,0.007,0.0475,0.0453,0.0453,0.0454,0.0455,0.0455,0,0.0748,0.0818,0.0942,0.109,0.1223,0.127,0.1471,0.1584,0.1811,0.1966,0.2096,0.1942,0.1509,0.1058,0.0377,0.0031,-0.0083,-0.015,-0.0273,-0.0276,0.0079,0.0032,-0.0091,-0.0091,-0.009,-0.009,-0.009,-0.009,0.0797,0.0906,0.0958,0.1174,0.1285,0.1452,0.1568,0.1752,0.1888,0.2045,0.2065,0.2066,0.1711,0.0546,-0.0254,-0.0419,-0.0594,-0.0661,-0.0698,-0.0512,-0.0481,-0.0452,-0.0517,-0.0752,-0.0753,-0.1054,-0.1058,-0.106]}],[{"header":{"parameterUnit":"m.s-1","parameterCategory":2,"la1":30.2991,"la2":30.254,"lo1":-89.0895,"lo2":-89.0444,"dy":0.0017,"dx":0.0017,"nx":28,"ny":28,"refTime":"2024-08-13T09:00:00:Z","depth":"2","parameterNumber":2,"parameterNumberName":"U-component_of_CURRENTS"},"data":[0,0,0,0,0,0,0,0,0,0,0,0,0,0,0,0,0,0,0,0,0,0,0,0,0,0,0,0,0,0,0,0,0,0,0,0,0,0,0,0,0,0,0,0,0,0,0,0,0,0,0,0,0,0,0,0,0,0,0.3765,0.3767,0,0.388,0.3881,0.3881,0.3845,0.3843,0.3842,0.384,0.388,0.3882,0.3884,0,0,0,0,0,0,0,0,0,0,0,0,0,0.3577,0.3579,0.3764,0.3767,0.3769,0.388,0.3881,0.3882,0.3845,0.3843,0.3841,0.3839,0.3879,0.3882,0.3885,0,0,0,0,0,0,0,0,0,0,0,0,0,0.3663,0.358,0.3764,0.3771,0.3774,0.388,0.3881,0.3882,0.3845,0.3843,0.3841,0.3838,0.3878,0.3881,0.3885,0.3955,0,0,0.3897,0.3898,0,0,0,0,0,0,0,0,0.3658,0.3668,0.3768,0.3771,0.3774,0.3854,0.383,0.3906,0.3846,0.3808,0.384,0.3837,0.3872,0.3876,0.389,0.3957,0.3959,0.3897,0.3899,0.3901,0.3902,0,0,0,0,0,0,0,0.3652,0.3664,0.38,0.3771,0.3775,0.3793,0.38,0.3844,0.3843,0.3811,0.3811,0.384,0.3872,0.3887,0.3891,0.396,0.3897,0.39,0.3903,0.3904,0.4098,0.41,0,0,0,0,0,0,0.3657,0.3658,0.3797,0.3805,0.372,0.3798,0.3806,0.3823,0.3844,0.3848,0.3842,0.3839,0.3882,0.3887,0.3892,0.3965,0.3901,0.3904,0.3907,0.4095,0.4098,0.4101,0,0,0,0,0,0,0.3652,0.3668,0.3792,0.3742,0.376,0.3804,0.3823,0.3827,0.3857,0.3871,0.3871,0.3872,0.388,0.3887,0.3939,0.3966,0.3906,0.3909,0.4091,0.4096,0.41,0.4118,0,0,0,0,0,0,0.3646,0.3665,0.3703,0.3742,0.3764,0.387,0.3827,0.3831,0.3883,0.3879,0.3897,0.3896,0.3879,0.3934,0.3943,0.397,0.3912,0.4088,0.4093,0.4098,0.4114,0.4123,0.413,0,0,0,0,0,0.3639,0.3692,0.3704,0.3723,0.3806,0.3874,0.3886,0.3902,0.3887,0.3916,0.3918,0.3896,0.3974,0.394,0.395,0.3978,0.4085,0.4092,0.4098,0.411,0.4121,0.413,0,0,0,0,0,0,0.3632,0.3697,0.3708,0.378,0.3833,0.3871,0.3922,0.3926,0.3955,0.395,0.3936,0.3939,0.3996,0.4003,0.3965,0.4056,0.4027,0.4036,0.4033,0.4043,0.4051,0.4039,0.3916,0,0,0,0,0,0.3654,0.3707,0.3764,0.3826,0.3859,0.3896,0.3936,0.3941,0.3969,0.3979,0.3982,0.4,0.4035,0.4048,0.4079,0.4136,0.4172,0.4165,0.4173,0.418,0.4181,0.4273,0.4288,0.4123,0.4123,0.4122,0,0,0.3667,0.3718,0.3746,0.3831,0.3873,0.3913,0.3911,0.3977,0.3997,0.3983,0.4014,0.4037,0.4061,0.4109,0.4136,0.4113,0.4252,0.4188,0.4192,0.4191,0.4281,0.4297,0.4311,0.4127,0.4126,0.4126,0,0,0.3705,0.3769,0.3813,0.3863,0.3944,0.3963,0.3987,0.4031,0.4045,0.4089,0.4083,0.4125,0.4166,0.4182,0.4198,0.4284,0.4298,0.43,0.4319,0.4407,0.4421,0.4433,0.4513,0.4532,0.4294,0.4294,0.4294,0,0.3721,0.3772,0.3841,0.3893,0.3923,0.3981,0.4006,0.4052,0.4098,0.4114,0.41,0.4178,0.4198,0.4259,0.4277,0.4298,0.4351,0.4268,0.4415,0.4428,0.444,0.4519,0.454,0.4296,0.4296,0.4295,0.4295,0,0.3764,0.3819,0.3858,0.3921,0.3968,0.4014,0.4069,0.4111,0.4126,0.4152,0.422,0.4254,0.4288,0.4314,0.4314,0.4415,0.4426,0.4418,0.4379,0.4457,0.4536,0.4558,0.4298,0.4298,0.4297,0.4297,0,0,0.3753,0.3858,0.3871,0.3894,0.3976,0.4012,0.4067,0.4122,0.416,0.4212,0.4256,0.432,0.4341,0.4364,0.4389,0.4462,0.4595,0.4474,0.4478,0.4533,0.48,0.4405,0.4391,0.4614,0.4617,0.462,0.4824,0,0.3755,0.3831,0.3869,0.392,0.3961,0.401,0.405,0.4115,0.417,0.4241,0.4308,0.4376,0.4364,0.4396,0.4465,0.4575,0.4651,0.4541,0.4733,0.4739,0.4361,0.4401,0.4107,0.4226,0.4845,0.4848,0.4851,0,0.3768,0.3821,0.3856,0.3915,0.3932,0.3955,0.402,0.4067,0.419,0.4239,0.4318,0.4388,0.4511,0.4494,0.4696,0.4629,0.4714,0.479,0.4799,0.4431,0.438,0.4249,0.4241,0.4886,0.4883,0.4881,0.4878,0,0.373,0.3804,0.3819,0.3844,0.3922,0.3928,0.3962,0.4061,0.4113,0.4262,0.4322,0.4461,0.4541,0.4682,0.4795,0.4782,0.5011,0.5013,0.4745,0.4721,0.4501,0.4445,0.5161,0.5161,0.5161,0.516,0.5159,0,0.3717,0.3742,0.3803,0.3826,0.3836,0.3899,0.3931,0.3998,0.4111,0.4172,0.432,0.4392,0.4595,0.4727,0.4841,0.4814,0.5046,0.474,0.473,0.4494,0.4438,0.5028,0.501,0.5168,0.5166,0.5164,0.5163,0,0.3687,0.3727,0.3759,0.3816,0.3825,0.3839,0.3901,0.3943,0.4059,0.415,0.4206,0.4391,0.4517,0.4677,0.4905,0.4805,0.4883,0.4827,0.4502,0.4439,0.4545,0.4527,0.4558,0.4546,0.4535,0.4526,0.4519,0,0.3676,0.3693,0.3739,0.3741,0.376,0.379,0.3807,0.3907,0.395,0.4119,0.4155,0.4311,0.431,0.4436,0.441,0.4464,0.4683,0.4132,0.3984,0.4486,0.4478,0.4476,0.4473,0.3781,0.3768,0.3758,0.3749,0,0.3658,0.3671,0.3697,0.3685,0.3691,0.3695,0.3727,0.3729,0.3834,0.3874,0.3892,0.3902,0.3981,0.3811,0.3808,0.3819,0.4073,0.3894,0.4602,0.3872,0.3738,0.3733,0.3761,0.3655,0.3664,0.3671,0.3676,0.368,0.3633,0.3625,0.363,0.3591,0.3603,0.3533,0.3446,0.3469,0.342,0.3373,0.3531,0.3414,0.3455,0.3212,0.3163,0.3145,0.34,0.3289,0.3332,0.3384,0.3149,0.2991,0.2731,0.2735,0.2738,0.2741,0.2744,0,0.3546,0.353,0.3521,0.3418,0.3306,0.339,0.3331,0.3176,0.2982,0.3026,0.2941,0.265,0.2504,0.2637,0.2428,0.2332,0.2457,0.2268,0.2467,0.2557,0.2638,0.2376,0.1749,0.1746,0.1744,0.1741,0,0,0.3498,0.3427,0.3385,0.3123,0.3044,0.2841,0.2752,0.258,0.2531,0.2308,0.2228,0.2349,0.2462,0.2058,0.2006,0.1852,0.2208,0.1783,0.2579,0.2902,0.2981,0.3212,0.29,0,0,0,0,0]},{"header":{"parameterUnit":"m.s-1","parameterCategory":2,"la1":30.2991,"la2":30.254,"lo1":-89.0895,"lo2":-89.0444,"dy":0.0017,"dx":0.0017,"nx":28,"ny":28,"refTime":"2024-08-13T09:00:00:Z","depth":"2","parameterNumber":3,"parameterNumberName":"V-component_of_CURRENTS"},"data":[0,0,0,0,0,0,0,0,0,0,0,0,0,0,0,0,0,0,0,0,0,0,0,0,0,0,0,0,0,0,0,0,0,0,0,0,0,0,0,0,0,0,0,0,0,0,0,0,0,0,0,0,0,0,0,0,0,0,0.0372,0.0372,0,0.0317,0.0316,0.0315,0.0228,0.0227,0.0226,0.0225,0.0028,0.0024,0.002,0,0,0,0,0,0,0,0,0,0,0,0,0,0.0366,0.0366,0.0372,0.0372,0.0372,0.0318,0.0316,0.0315,0.0229,0.0227,0.0226,0.0225,0.003,0.0025,0.002,0,0,0,0,0,0,0,0,0,0,0,0,0,0.0341,0.0367,0.0372,0.0326,0.0322,0.0318,0.0316,0.0315,0.0229,0.0227,0.0226,0.0224,0.0031,0.0025,0.0019,0.0013,0,0,-0.0,-0.0003,0,0,0,0,0,0,0,0,0.0343,0.0341,0.0333,0.0329,0.0324,0.0282,0.0242,0.0209,0.0229,0.0259,0.0225,0.0223,0.0105,0.0092,0.008,0.0004,-0.0004,-0.0001,-0.0005,-0.0007,-0.0009,0,0,0,0,0,0,0,0.0345,0.0343,0.0345,0.0333,0.0328,0.0296,0.029,0.0235,0.0185,0.0256,0.0251,0.0253,0.01,0.0087,0.0075,-0.0007,-0.0001,-0.0006,-0.001,-0.0013,-0.0067,-0.0065,0,0,0,0,0,0,0.0365,0.0345,0.0347,0.0344,0.0335,0.0298,0.0291,0.0294,0.0189,0.0174,0.0255,0.025,0.0099,0.0082,0.0067,0.0069,-0.0007,-0.0013,-0.0017,-0.0069,-0.0067,-0.0064,0,0,0,0,0,0,0.0366,0.0366,0.035,0.0347,0.0343,0.03,0.0303,0.0293,0.0274,0.019,0.0171,0.0245,0.0097,0.0076,0.0035,0.006,-0.0016,-0.0022,-0.0072,-0.0069,-0.0065,0.0063,0,0,0,0,0,0,0.0366,0.0367,0.0364,0.0349,0.0344,0.0358,0.0305,0.0294,0.0281,0.0273,0.0176,0.0156,0.0094,0.0045,0.0029,0.005,-0.0027,-0.0075,-0.0071,-0.0066,0.0055,0.007,0.0083,0,0,0,0,0,0.0365,0.0378,0.0364,0.0364,0.0346,0.0359,0.0354,0.0314,0.0282,0.0286,0.0228,0.0159,0.0062,0.0042,0.0022,0.0042,-0.0077,-0.0072,-0.0067,0.0049,0.0067,0.0082,0,0,0,0,0,0,0.0385,0.0371,0.0355,0.0364,0.0366,0.0347,0.0344,0.0322,0.0281,0.0264,0.0178,0.0156,0.0132,0.0078,0.0059,0.0045,-0.0015,-0.0013,0.008,0.0096,0.011,0.0127,-0.0032,0,0,0,0,0,0.0389,0.0386,0.0383,0.0393,0.0394,0.037,0.0365,0.0347,0.0317,0.0296,0.0235,0.0178,0.0143,0.0111,0.0067,0.0051,0.0007,0.0057,0.007,0.0082,0.0087,0.0062,0.0073,-0.0047,-0.0047,-0.0047,0,0,0.0403,0.0394,0.0394,0.0395,0.0387,0.0413,0.0361,0.0368,0.0388,0.0281,0.0272,0.0216,0.0151,0.014,0.0125,0.0092,0.0098,0.0089,0.0099,0.0097,0.0068,0.0079,0.0089,-0.0043,-0.0044,-0.0044,0,0,0.0444,0.0423,0.0437,0.0444,0.0444,0.0439,0.0448,0.0434,0.042,0.0414,0.0352,0.0324,0.0252,0.0227,0.0201,0.0266,0.0172,0.0245,0.0317,0.0294,0.0303,0.031,0.0284,0.0287,0.0249,0.0249,0.025,0,0.0463,0.048,0.0449,0.0474,0.0489,0.046,0.05,0.0496,0.0471,0.0476,0.0427,0.0366,0.0303,0.031,0.0327,0.0295,0.0256,0.0257,0.031,0.0317,0.0322,0.0292,0.0295,0.0256,0.0255,0.0255,0.0254,0,0.0521,0.0533,0.055,0.0569,0.0582,0.0613,0.0615,0.0624,0.06,0.0594,0.0587,0.0511,0.047,0.0458,0.04,0.0419,0.0371,0.0331,0.0266,0.0342,0.0306,0.0306,0.0266,0.0264,0.0262,0.026,0,0,0.0571,0.0588,0.0593,0.0615,0.0634,0.0659,0.0702,0.074,0.0773,0.0735,0.0769,0.0707,0.0651,0.0619,0.055,0.0527,0.0529,0.0442,0.0437,0.0411,0.0466,0.0356,0.0344,0.0485,0.0486,0.0486,0.043,0,0.063,0.0696,0.0686,0.0757,0.0794,0.0787,0.0832,0.0858,0.086,0.0885,0.083,0.082,0.0718,0.0689,0.0654,0.0566,0.0533,0.0547,0.04,0.0396,0.0285,0.0343,0.0361,0.0305,0.043,0.043,0.043,0,0.0692,0.0725,0.0802,0.0849,0.0864,0.0896,0.0962,0.0995,0.103,0.1028,0.101,0.0959,0.0925,0.0821,0.0705,0.071,0.0592,0.0519,0.0515,0.0363,0.0286,0.0248,0.03,0.0429,0.0429,0.0429,0.0429,0,0.0745,0.0806,0.0868,0.0886,0.0938,0.0963,0.0987,0.1033,0.1076,0.1107,0.1134,0.1083,0.1044,0.0921,0.0754,0.0721,0.0628,0.0566,0.0361,0.0352,0.0315,0.0301,0.0478,0.0478,0.0478,0.0478,0.0479,0,0.0814,0.0857,0.0889,0.0923,0.0995,0.1002,0.1077,0.1105,0.1156,0.1226,0.1183,0.1217,0.1059,0.0985,0.0819,0.0598,0.0671,0.0381,0.0332,0.036,0.0351,0.041,0.0403,0.0476,0.0477,0.0477,0.0478,0,0.0851,0.0882,0.0943,0.0996,0.1016,0.1055,0.112,0.1188,0.1215,0.1304,0.1315,0.1313,0.1208,0.1051,0.0867,0.0666,0.0489,0.0386,0.0425,0.0379,0.0209,0.0209,0.0148,0.0143,0.014,0.0137,0.0134,0,0.0868,0.0907,0.0983,0.1029,0.1044,0.1103,0.1165,0.1211,0.1291,0.1366,0.1428,0.1364,0.1315,0.102,0.0728,0.0435,0.043,0.0214,0.0136,0.0217,0.0176,0.0183,0.0188,0.0155,0.0152,0.0151,0.0149,0,0.0891,0.0916,0.0977,0.1068,0.1132,0.1224,0.1305,0.1389,0.1462,0.1511,0.1578,0.1535,0.1255,0.0965,0.0556,0.0362,0.0263,0.0158,0.0273,0.0212,0.0212,0.0175,0.0183,0.0133,0.0135,0.0136,0.0137,0.0137,0.0896,0.094,0.1022,0.111,0.1207,0.1341,0.1406,0.1512,0.1616,0.1674,0.1659,0.1555,0.1257,0.0699,0.0402,0.0095,0.009,-0.0046,-0.0034,-0.0022,-0.0035,-0.0044,-0.0172,-0.0172,-0.0172,-0.0173,-0.0173,0,0.0893,0.096,0.1055,0.118,0.1294,0.1335,0.1502,0.1547,0.1651,0.1695,0.1665,0.1339,0.1008,0.0703,0.0204,-0.013,-0.0096,-0.0206,-0.0081,-0.0065,-0.0051,-0.0059,-0.0206,-0.0207,-0.0207,-0.0208,0,0,0.0897,0.0981,0.1042,0.122,0.1313,0.1415,0.1502,0.1572,0.1617,0.1614,0.1545,0.1434,0.1064,0.0699,0.0317,0.0055,0.0066,0.0005,0.0057,0.0263,0.0282,0.0058,0.0063,0,0,0,0,0]}],[{"header":{"parameterUnit":"m.s-1","parameterCategory":2,"la1":30.2991,"la2":30.254,"lo1":-89.0895,"lo2":-89.0444,"dy":0.0017,"dx":0.0017,"nx":28,"ny":28,"refTime":"2024-08-13T09:00:00:Z","depth":"4","parameterNumber":2,"parameterNumberName":"U-component_of_CURRENTS"},"data":[0,0,0,0,0,0,0,0,0,0,0,0,0,0,0,0,0,0,0,0,0,0,0,0,0,0,0,0,0,0,0,0,0,0,0,0,0,0,0,0,0,0,0,0,0,0,0,0,0,0,0,0,0,0,0,0,0,0,0.0763,0.0763,0,0.0744,0.0744,0.0744,0.0773,0.0774,0.0775,0.0775,0.0849,0.085,0.0851,0,0,0,0,0,0,0,0,0,0,0,0,0,0.0744,0.0744,0.0763,0.0762,0.0762,0.0744,0.0744,0.0744,0.0773,0.0774,0.0775,0.0776,0.0848,0.085,0.0851,0,0,0,0,0,0,0,0,0,0,0,0,0,0.0743,0.0745,0.0763,0.0773,0.0773,0.0744,0.0744,0.0744,0.0773,0.0774,0.0775,0.0776,0.0848,0.0849,0.0851,0.0838,0,0,0.0857,0.0857,0,0,0,0,0,0,0,0,0.0743,0.0744,0.0772,0.0772,0.0773,0.0761,0.0764,0.0779,0.0772,0.0775,0.0775,0.0777,0.0825,0.0829,0.0824,0.0841,0.0844,0.0857,0.0858,0.0859,0.0859,0,0,0,0,0,0,0,0.0743,0.0745,0.0758,0.0771,0.0772,0.0751,0.0753,0.0766,0.0797,0.0775,0.0776,0.0771,0.0827,0.0822,0.0827,0.0845,0.0857,0.0858,0.0859,0.086,0.1001,0.1004,0,0,0,0,0,0,0.0745,0.0745,0.0758,0.0757,0.0758,0.075,0.0753,0.0765,0.0795,0.0799,0.077,0.0772,0.0819,0.0824,0.0829,0.0933,0.0859,0.086,0.0861,0.0999,0.1002,0.1005,0,0,0,0,0,0,0.0745,0.0747,0.0759,0.0748,0.0748,0.075,0.0762,0.0764,0.0778,0.0789,0.0796,0.0785,0.082,0.0827,0.0867,0.0932,0.0861,0.0863,0.0996,0.1,0.1003,0.1065,0,0,0,0,0,0,0.0745,0.0747,0.0779,0.0749,0.0748,0.0771,0.0761,0.0762,0.0771,0.0774,0.0804,0.0811,0.0822,0.0864,0.0868,0.0933,0.0864,0.0992,0.0997,0.1002,0.106,0.1071,0.108,0,0,0,0,0,0.0744,0.0759,0.0781,0.0783,0.0785,0.0772,0.0772,0.0776,0.077,0.0791,0.0806,0.0811,0.0901,0.0866,0.0871,0.0938,0.099,0.0996,0.1002,0.1055,0.1068,0.108,0,0,0,0,0,0,0.0737,0.0763,0.0786,0.0803,0.0809,0.0777,0.0792,0.0783,0.0806,0.0825,0.0821,0.083,0.0898,0.0903,0.0865,0.0998,0.0956,0.0963,0.0995,0.1008,0.1018,0.1117,0.0866,0,0,0,0,0,0.0759,0.0802,0.08,0.0819,0.0827,0.0814,0.0815,0.0823,0.0823,0.0834,0.0872,0.0906,0.0922,0.095,0.0984,0.1035,0.102,0.1092,0.1102,0.111,0.1197,0.1182,0.1198,0.1025,0.1025,0.1025,0,0,0.0736,0.0779,0.0786,0.0826,0.0831,0.0848,0.082,0.0835,0.0859,0.084,0.0921,0.0943,0.0942,0.1014,0.1047,0.1029,0.1138,0.1118,0.1125,0.1209,0.119,0.1207,0.1222,0.1029,0.1028,0.1027,0,0,0.074,0.0779,0.0826,0.0856,0.0901,0.0887,0.0895,0.0914,0.0941,0.1,0.0993,0.1064,0.1105,0.1137,0.1139,0.1226,0.1186,0.1235,0.1375,0.1356,0.137,0.1382,0.1314,0.1321,0.1246,0.1246,0.1246,0,0.0728,0.0788,0.0827,0.0897,0.0924,0.0905,0.0944,0.0949,0.0993,0.1025,0.1052,0.116,0.1175,0.1223,0.1294,0.1255,0.1221,0.1312,0.1367,0.138,0.1392,0.132,0.1326,0.125,0.125,0.1249,0.1249,0,0.0774,0.083,0.0851,0.0945,0.099,0.1003,0.1033,0.108,0.1116,0.1138,0.1247,0.1298,0.1387,0.1384,0.1383,0.1483,0.1417,0.1365,0.1329,0.1413,0.133,0.1336,0.1255,0.1254,0.1253,0.1252,0,0,0.0703,0.085,0.0855,0.0923,0.102,0.1039,0.1105,0.114,0.1188,0.1282,0.1364,0.1469,0.1554,0.1575,0.1584,0.1609,0.1648,0.157,0.1567,0.1493,0.1577,0.1523,0.1521,0.1592,0.1595,0.1598,0.1458,0,0.0713,0.0824,0.0914,0.0994,0.1045,0.1107,0.1188,0.1248,0.1298,0.138,0.1437,0.1538,0.1592,0.1678,0.1722,0.1685,0.1681,0.1691,0.1523,0.1519,0.1452,0.1535,0.1608,0.1462,0.1463,0.1464,0.1464,0,0.0743,0.0813,0.0907,0.1063,0.1096,0.116,0.1285,0.1367,0.1455,0.1517,0.1638,0.1684,0.1812,0.1813,0.1846,0.185,0.1776,0.171,0.1699,0.1664,0.148,0.1381,0.1473,0.1472,0.1472,0.1471,0.1471,0,0.0679,0.0812,0.0884,0.0933,0.1101,0.1181,0.1277,0.1416,0.1507,0.1624,0.1709,0.1818,0.1914,0.1887,0.1858,0.1861,0.1795,0.1735,0.1583,0.1572,0.1627,0.1616,0.172,0.172,0.172,0.172,0.1721,0,0.0667,0.0725,0.0862,0.0891,0.1027,0.12,0.1346,0.1449,0.1616,0.1708,0.1829,0.1897,0.1955,0.1925,0.1858,0.1767,0.1791,0.1667,0.1571,0.1643,0.1637,0.1624,0.1615,0.1715,0.1716,0.1717,0.1718,0,0.0635,0.0699,0.0798,0.0948,0.101,0.1141,0.1378,0.1467,0.1666,0.1786,0.1848,0.1973,0.1977,0.1933,0.1837,0.1773,0.1649,0.1562,0.1628,0.1525,0.1428,0.1424,0.144,0.1438,0.1436,0.1434,0.1433,0,0.0633,0.0675,0.0812,0.0879,0.0959,0.1141,0.1254,0.1465,0.1553,0.179,0.1816,0.1907,0.1945,0.1776,0.1739,0.1578,0.1534,0.1457,0.1535,0.1515,0.1418,0.1416,0.1415,0.143,0.143,0.1429,0.1429,0,0.0635,0.0685,0.072,0.0868,0.0974,0.1086,0.1249,0.13,0.1531,0.1692,0.1781,0.18,0.1773,0.1722,0.1608,0.1475,0.1538,0.1438,0.1442,0.1515,0.1502,0.1408,0.1408,0.1422,0.1423,0.1424,0.1424,0,0.0623,0.0642,0.071,0.0838,0.0958,0.103,0.1105,0.1218,0.1348,0.1611,0.159,0.1667,0.1746,0.1656,0.1524,0.1452,0.1447,0.1403,0.141,0.1416,0.1479,0.1464,0.134,0,0,0,0,0,0.0629,0.0623,0.0705,0.0804,0.0918,0.1014,0.1113,0.1179,0.1344,0.1388,0.1522,0.1494,0.1475,0.1482,0.1396,0.1452,0.1393,0.1344,0.1333,0.1386,0.1394,0.1473,0,0,0,0,0,0,0.0619,0.0666,0.0669,0.077,0.0848,0.0961,0.101,0.1096,0.1138,0.1315,0.1291,0.1454,0.1403,0.1526,0.1394,0.1389,0.136,0.1391,0.1388,0.1382,0.1389,0.1395,0.1479,0,0,0,0,0]},{"header":{"parameterUnit":"m.s-1","parameterCategory":2,"la1":30.2991,"la2":30.254,"lo1":-89.0895,"lo2":-89.0444,"dy":0.0017,"dx":0.0017,"nx":28,"ny":28,"refTime":"2024-08-13T09:00:00:Z","depth":"4","parameterNumber":3,"parameterNumberName":"V-component_of_CURRENTS"},"data":[0,0,0,0,0,0,0,0,0,0,0,0,0,0,0,0,0,0,0,0,0,0,0,0,0,0,0,0,0,0,0,0,0,0,0,0,0,0,0,0,0,0,0,0,0,0,0,0,0,0,0,0,0,0,0,0,0,0,0.0273,0.0273,0,0.0219,0.0218,0.0217,0.021,0.0211,0.0212,0.0213,0.0095,0.0091,0.0087,0,0,0,0,0,0,0,0,0,0,0,0,0,0.0302,0.0302,0.0273,0.0273,0.0273,0.0219,0.0218,0.0217,0.021,0.0211,0.0212,0.0214,0.0096,0.0091,0.0086,0,0,0,0,0,0,0,0,0,0,0,0,0,0.0267,0.0301,0.0273,0.0268,0.0268,0.022,0.0218,0.0216,0.0209,0.0211,0.0213,0.0214,0.0098,0.0092,0.0086,0.0013,0,0,0.0066,0.0064,0,0,0,0,0,0,0,0,0.0269,0.0265,0.0269,0.0269,0.0268,0.0229,0.0185,0.0147,0.0209,0.0224,0.0213,0.0215,0.0137,0.0127,0.0105,0.0007,0.0002,0.0066,0.0062,0.0059,0.0058,0,0,0,0,0,0,0,0.0271,0.0267,0.0245,0.0269,0.0268,0.0246,0.0242,0.0177,0.0165,0.0223,0.0224,0.0228,0.0135,0.0111,0.0102,0.0001,0.0066,0.006,0.0057,0.0054,-0.015,-0.0151,0,0,0,0,0,0,0.0293,0.0269,0.0247,0.0244,0.028,0.0245,0.024,0.0234,0.0168,0.0162,0.0227,0.0228,0.0121,0.0109,0.0098,0.0023,0.0059,0.0053,0.005,-0.0148,-0.015,-0.0152,0,0,0,0,0,0,0.0294,0.0291,0.0249,0.0262,0.0256,0.0243,0.0236,0.0232,0.0225,0.0172,0.0164,0.0226,0.0122,0.0107,0.005,0.0019,0.0051,0.0045,-0.0146,-0.0149,-0.0151,-0.0136,0,0,0,0,0,0,0.0294,0.0291,0.03,0.0263,0.0256,0.0236,0.0235,0.023,0.0227,0.0228,0.0168,0.0158,0.0122,0.0059,0.0044,0.001,0.004,-0.0144,-0.0147,-0.015,-0.0134,-0.0137,-0.014,0,0,0,0,0,0.0295,0.0302,0.0301,0.0299,0.0267,0.0237,0.023,0.0223,0.0226,0.0221,0.0178,0.0161,0.0029,0.0053,0.0035,-0.0001,-0.0143,-0.0146,-0.015,-0.0133,-0.0137,-0.014,0,0,0,0,0,0,0.0322,0.0301,0.0299,0.0301,0.028,0.0239,0.0242,0.0227,0.0187,0.0192,0.0139,0.0125,0.0063,0.0026,0.0054,-0.007,-0.0061,-0.0069,-0.0042,-0.0046,-0.0049,-0.0003,0.0035,0,0,0,0,0,0.0332,0.0331,0.0304,0.0307,0.03,0.0269,0.026,0.025,0.0211,0.0198,0.0157,0.0099,0.0026,-0.0008,-0.0064,-0.0137,-0.0169,-0.0173,-0.0175,-0.0178,-0.0154,-0.0251,-0.026,-0.0164,-0.0164,-0.0164,0,0,0.0342,0.0334,0.0333,0.0313,0.0296,0.0281,0.0267,0.0256,0.0233,0.0186,0.0148,0.0093,0.0007,-0.0066,-0.0099,-0.0098,-0.0224,-0.0182,-0.0183,-0.0158,-0.0256,-0.0265,-0.0273,-0.0166,-0.0166,-0.0166,0,0,0.0362,0.0355,0.0361,0.0345,0.0331,0.0303,0.0304,0.0268,0.0245,0.0195,0.0147,0.0085,-0.0011,-0.008,-0.0132,-0.0189,-0.0231,-0.0218,-0.0204,-0.03,-0.0308,-0.0315,-0.0366,-0.0378,-0.0226,-0.0226,-0.0226,0,0.0376,0.0378,0.0357,0.0358,0.0356,0.0315,0.0317,0.0269,0.022,0.0184,0.0194,0.0039,-0.0019,-0.014,-0.0151,-0.0194,-0.0239,-0.0183,-0.0302,-0.031,-0.0317,-0.0368,-0.0382,-0.0225,-0.0225,-0.0225,-0.0226,0,0.04,0.0399,0.04,0.0385,0.0378,0.0368,0.0318,0.0288,0.0258,0.0203,0.0109,0.0029,-0.0052,-0.0105,-0.0143,-0.0246,-0.0256,-0.0288,-0.0284,-0.0326,-0.0377,-0.0391,-0.0225,-0.0225,-0.0225,-0.0225,0,0,0.0418,0.0417,0.0414,0.0419,0.0394,0.0384,0.0342,0.0277,0.0242,0.0168,0.0109,-0.0016,-0.0044,-0.0101,-0.0171,-0.0256,-0.0348,-0.0284,-0.029,-0.0318,-0.0533,-0.043,-0.0436,-0.041,-0.0412,-0.0414,-0.0545,0,0.0437,0.0455,0.0446,0.0447,0.0451,0.0409,0.0389,0.0324,0.0249,0.0175,0.0053,-0.0014,-0.0056,-0.0077,-0.0178,-0.0302,-0.0385,-0.0307,-0.0501,-0.0506,-0.0397,-0.0449,-0.0422,-0.0556,-0.0559,-0.0561,-0.0563,0,0.0457,0.0467,0.0496,0.0494,0.0495,0.0496,0.0452,0.0428,0.0296,0.0242,0.0132,0.0044,-0.0084,-0.0102,-0.0327,-0.0276,-0.0386,-0.0485,-0.0494,-0.0404,-0.0429,-0.051,-0.0589,-0.0587,-0.0585,-0.0584,-0.0582,0,0.0483,0.0489,0.0522,0.0521,0.0521,0.0529,0.0532,0.0452,0.0439,0.0297,0.0274,0.0077,0.0027,-0.0163,-0.0343,-0.034,-0.0592,-0.0621,-0.0639,-0.0633,-0.0691,-0.0682,-0.078,-0.078,-0.078,-0.0779,-0.0779,0,0.0497,0.0509,0.0545,0.0551,0.0606,0.0602,0.0625,0.0581,0.0532,0.0497,0.0347,0.027,0.0013,-0.0166,-0.0349,-0.0519,-0.0598,-0.0626,-0.0664,-0.0682,-0.0671,-0.0701,-0.069,-0.0784,-0.0783,-0.0782,-0.0781,0,0.0512,0.0531,0.0571,0.0601,0.0623,0.0678,0.0732,0.0721,0.0702,0.0652,0.0632,0.0417,0.02,-0.0055,-0.0373,-0.0473,-0.0685,-0.0734,-0.0707,-0.0743,-0.0659,-0.0647,-0.075,-0.0748,-0.0746,-0.0744,-0.0743,0,0.0519,0.0546,0.0621,0.0666,0.0688,0.0764,0.08,0.0806,0.0794,0.0721,0.0684,0.0498,0.0325,-0.0034,-0.0307,-0.0623,-0.0661,-0.0739,-0.0712,-0.0632,-0.0659,-0.065,-0.064,-0.0739,-0.0739,-0.0738,-0.0738,0,0.0527,0.0572,0.059,0.0717,0.0777,0.0827,0.0876,0.089,0.0876,0.0868,0.0733,0.0546,0.0304,-0.0011,-0.0231,-0.0479,-0.0672,-0.0718,-0.0723,-0.0699,-0.062,-0.0647,-0.064,-0.073,-0.0731,-0.0732,-0.0733,0,0.0532,0.0562,0.0632,0.0728,0.0813,0.0855,0.088,0.0869,0.0887,0.0831,0.0761,0.051,0.0352,0.0062,-0.0181,-0.0363,-0.0399,-0.0437,-0.0458,-0.0469,-0.0336,-0.0191,-0.0198,0,0,0,0,0,0.0541,0.056,0.0639,0.0726,0.0811,0.0873,0.0903,0.091,0.0909,0.0842,0.0826,0.0599,0.0293,0.0117,-0.0045,-0.0157,-0.0449,-0.0348,-0.0508,-0.069,-0.0699,-0.058,0,0,0,0,0,0,0.054,0.06,0.0624,0.0716,0.0776,0.0857,0.0874,0.0863,0.0832,0.0814,0.0632,0.0608,0.0273,0.0389,-0.0037,-0.0094,-0.0203,-0.0487,-0.0489,-0.0685,-0.0693,-0.07,-0.0581,0,0,0,0,0]}]]